[ hide orbit diagram ]
For accurate long-term ephemerides, please instead use our Horizons system.This orbit viewer was implemented using two-body methods, and hence should not be used for determining accurate long-term trajectories (over several years or decades) or planetary encounter circumstances.
Orbital Elements at Epoch 2459000.5 (2020-May-31.0) TDB
Reference: JPL 14 (heliocentric ecliptic J2000)
Element | Value | Uncertainty (1-sigma) | Units |
e | .1015684093010322 | 1.3676e-06 | |
a | 2.531868677517541 | 4.822e-08 | au |
q | 2.274710803382976 | 3.498e-06 | au |
i | 9.058567775378606 | 1.1094e-05 | deg |
node | 216.4364784190016 | 3.9517e-05 | deg |
peri | 150.0721700299088 | 0.00018744 | deg |
M | 268.081511642587 | 0.00027784 | deg |
tp | 2459376.216755821240 (2021-Jun-10.71675582) | 0.0011272 | TDB |
period | 1471.499744096239 4.03 | 4.2038e-05 1.151e-07 | d yr |
n | .2446483605888112 | 6.9891e-09 | deg/d |
Q | 2.789026551652105 | 5.3118e-08 | au |
|
| | Orbit Determination Parameters
Additional Information
|
[ show covariance matrix ]
Physical Parameter Table
Parameter |
Symbol |
Value |
Units |
Sigma |
Reference |
Notes |
absolute magnitude |
H |
17.2 |
|
n/a |
MPO331938 |
|
|
432347 (2009 VO45) Discovered 2009-Nov-14 by Lowe, A. at Mayhill |
Reference: | Last Updated: 2015-04-07 |
|
|